Wind_Speed
7 6 6 5 4 4 4 4 4 3 3 3 4 4 4 5 4 5 5 6 7 8 8 9 10 10 11 12 12 12 13 13 14 14 14 15 15 16 16 17 17 18 19 19 19 19 18 17 17
9 8 7 6 4 5 4 4 4 4 3 3 4 4 4 4 5 6 6 7 9 9 10 10 11 11 11 12 12 12 13 13 13 14 14 16 16 17 18 18 18 19 20 20 20 20 20 19 18
11 10 8 7 6 5 4 4 4 4 4 4 5 5 5 5 6 7 8 9 10 10 10 11 11 11 11 11 11 11 12 13 14 15 16 16 17 17 18 18 19 19 20 21 21 20 21 21 20
12 11 10 8 6 6 6 6 5 5 5 5 6 6 6 6 6 7 9 9 10 10 11 11 10 10 10 11 11 12 13 13 14 15 16 16 17 17 18 19 19 20 21 22 22 22 22 22 21
13 12 10 9 8 7 7 7 6 7 6 6 6 6 6 6 7 7 9 10 10 9 10 10 9 9 9 10 11 12 13 13 14 15 16 17 18 18 18 19 20 20 22 23 22 22 22 23 23
14 13 12 10 9 8 7 7 7 7 6 6 5 6 7 7 7 7 8 9 9 8 8 8 8 8 9 10 11 12 13 14 15 15 16 16 17 18 18 19 20 20 21 22 22 22 22 23 24
15 14 12 11 10 9 8 7 7 7 8 7 7 7 8 7 7 8 8 9 8 7 7 6 7 8 9 10 11 12 13 14 15 16 16 17 18 18 19 19 20 21 21 22 23 23 23 24 24
16 15 13 11 10 10 8 8 8 7 7 7 8 8 7 7 7 8 8 8 7 7 6 6 7 8 9 10 11 12 13 14 15 16 17 18 18 19 19 20 21 22 22 23 24 23 24 24 25
17 16 14 13 11 10 10 9 9 8 7 8 7 7 6 7 7 7 8 7 7 6 6 6 7 8 9 9 10 11 12 13 14 16 17 18 18 18 19 20 20 21 22 23 24 24 24 24 25
18 16 15 14 12 11 10 10 9 8 8 8 8 7 7 7 7 7 7 7 6 6 6 7 8 8 8 9 10 11 13 14 15 15 16 17 18 18 19 19 20 21 22 23 23 24 24 24 25
19 17 15 15 13 12 10 10 10 9 9 8 8 8 8 7 7 7 7 6 6 6 6 6 7 8 8 9 11 12 13 14 15 15 16 16 17 18 19 19 20 21 22 23 24 24 25 25 24
19 18 17 16 14 13 11 10 10 10 9 9 9 9 9 8 7 7 6 6 6 6 5 6 6 7 8 9 11 12 13 14 15 15 16 17 17 18 19 20 20 20 21 22 23 24 25 26 25
20 18 17 16 15 13 11 11 11 10 10 9 9 8 8 8 8 7 6 6 6 5 5 5 6 7 9 10 11 12 13 14 15 16 16 17 18 18 19 19 20 20 21 21 22 24 25 27 27
19 18 17 15 15 14 13 12 11 10 10 9 9 9 8 8 7 7 6 6 5 4 4 5 7 8 9 10 11 13 14 15 15 16 17 18 18 18 18 18 19 19 20 20 21 22 24 26 27
18 18 17 15 14 13 12 11 10 9 9 9 9 9 9 9 7 6 6 6 5 4 4 5 7 8 9 10 12 13 14 15 16 17 18 18 18 18 19 19 19 19 20 20 21 22 23 24 25
18 17 16 14 13 12 11 10 10 10 9 9 9 9 8 7 7 6 6 5 4 4 4 6 7 8 9 11 12 14 15 16 16 17 18 19 18 18 19 19 19 19 19 19 20 21 22 22 24
16 15 14 12 12 10 9 9 9 9 9 9 8 8 7 7 7 6 5 4 4 4 5 6 7 8 10 11 12 14 15 16 17 18 19 19 18 18 18 18 18 18 18 18 18 19 20 21 22
13 13 12 11 10 9 8 7 7 7 8 8 8 7 7 6 6 6 5 4 4 4 5 6 7 9 10 11 13 14 15 16 17 18 19 19 18 18 18 18 18 18 17 17 17 18 19 19 21
11 11 10 9 8 7 6 6 5 5 6 6 7 7 7 6 5 5 5 5 5 5 5 6 8 9 10 12 13 14 15 17 17 18 19 19 19 18 18 18 17 17 16 16 15 16 17 18 19
11 10 9 8 7 6 5 4 4 4 4 5 6 6 6 5 5 5 5 5 5 5 6 7 8 9 10 12 13 14 15 17 17 18 19 19 19 19 18 18 17 16 15 14 13 14 14 16 17
10 8 8 7 6 5 4 3 3 3 3 4 4 5 5 4 4 5 5 5 6 6 7 7 8 9 10 12 13 14 15 17 17 18 19 19 19 19 18 18 17 16 14 13 12 11 12 14 15
9 8 7 6 4 4 4 2 2 2 3 3 4 4 3 3 4 5 6 6 6 6 7 7 8 9 10 12 13 14 15 17 17 18 19 19 19 19 18 18 16 14 13 11 10 9 10 11 13
9 8 6 5 5 4 4 3 2 2 3 3 4 4 4 4 4 5 5 6 6 6 7 7 8 9 10 12 13 14 15 16 17 18 18 18 19 18 17 17 16 14 12 11 9 8 8 9 11
8 7 6 6 5 4 3 2 2 2 2 3 4 4 4 4 4 5 5 6 6 7 7 7 8 9 10 11 13 14 15 16 16 17 18 18 18 18 17 16 15 14 12 10 8 7 7 8 10
7 6 6 5 4 3 2 2 1 2 3 4 4 4 5 5 5 6 6 6 7 7 8 8 8 9 10 11 13 14 15 16 16 16 17 17 17 17 17 16 15 14 13 11 9 7 6 6 7
5 5 4 3 2 2 2 2 2 3 4 5 5 5 6 6 6 7 7 8 8 8 8 9 9 10 10 11 12 13 15 15 15 16 16 16 17 17 16 16 14 13 12 11 9 7 5 4 5
4 3 2 1 1 2 2 3 4 5 5 6 6 7 7 7 7 8 8 8 9 9 9 10 10 10 11 12 12 13 14 15 15 15 15 16 16 16 16 15 14 13 11 10 9 7 5 3 2
3 2 0 0 1 1 2 4 4 5 6 7 7 8 9 9 9 10 10 10 10 10 11 11 11 11 12 12 13 13 14 14 14 15 15 15 15 15 15 14 14 13 12 10 8 7 5 3 2
2 1 1 2 2 2 2 4 5 6 7 8 9 9 10 11 11 11 11 11 12 12 13 12 12 13 13 13 13 14 14 14 14 14 15 15 14 14 14 14 13 13 11 10 8 7 5 4 2
2 2 2 3 3 4 5 5 6 7 7 9 10 10 11 12 12 13 13 13 14 14 15 15 14 14 14 14 14 14 14 14 14 14 14 14 14 14 14 13 12 12 11 10 9 7 6 4 2
Wind_Direction
261 270 289 301 315 333 347 2 358 329 301 289 286 289 277 269 271 274 279 285 288 289 290 292 295 294 293 292 292 293 293 291 289 287 285 283 282 281 279 274 271 269 269 268 265 264 261 261 263
256 264 274 286 298 320 333 339 344 334 309 302 294 295 285 280 282 284 286 288 290 289 290 291 290 288 289 289 289 289 290 291 291 288 286 284 282 281 279 276 273 271 269 268 267 264 260 260 261
253 260 266 275 288 304 318 319 314 317 305 296 298 298 293 287 288 287 291 291 290 291 292 289 289 288 288 288 288 288 290 290 290 289 287 285 284 283 281 277 273 272 269 268 267 264 261 259 259
253 257 261 267 281 289 296 298 303 306 299 291 291 294 292 291 293 292 295 297 295 294 293 290 289 288 288 288 289 291 293 292 290 289 288 286 285 283 280 277 273 271 270 268 265 263 261 259 258
250 253 254 264 275 284 289 294 299 303 297 293 292 298 292 289 294 299 302 301 300 297 297 296 292 289 289 291 294 295 295 295 293 292 290 287 285 284 281 277 274 272 270 268 265 262 260 258 257
247 251 253 258 266 274 287 288 290 293 295 297 302 304 301 297 298 301 306 303 302 303 305 303 299 296 296 298 298 298 299 298 297 294 292 290 288 285 282 278 275 272 269 268 265 263 259 257 255
243 245 250 257 265 271 280 287 289 290 288 290 298 301 299 296 298 302 305 306 304 301 303 304 306 306 306 304 302 302 302 301 300 296 294 292 289 286 283 280 276 273 271 269 265 263 262 259 256
240 244 249 253 259 266 273 281 281 283 289 295 295 297 294 292 296 303 306 303 300 299 302 304 315 315 313 312 312 311 307 304 301 299 296 295 293 289 283 280 277 273 269 268 265 262 262 259 256
237 241 246 248 250 257 264 270 274 279 285 289 292 295 293 292 294 299 302 301 297 299 306 312 317 318 319 320 320 319 315 312 308 304 300 297 295 292 288 283 279 275 272 268 266 261 261 259 255
234 237 242 243 245 252 261 267 274 283 281 286 287 291 288 288 291 296 298 295 296 298 304 313 317 320 321 323 324 323 320 317 314 310 306 301 298 295 292 287 282 277 274 269 266 261 258 257 254
231 235 239 241 245 249 257 265 268 276 279 283 287 289 290 288 288 291 291 288 291 295 301 308 315 322 323 325 325 325 324 322 319 314 310 306 302 298 294 290 285 281 276 270 265 260 256 254 254
227 231 238 240 245 250 251 255 263 270 280 282 285 288 288 282 276 277 284 289 291 295 300 309 318 322 325 329 330 329 329 327 325 321 316 311 306 301 296 292 286 282 277 272 266 260 255 254 251
223 227 233 237 241 241 246 251 256 266 275 280 288 292 284 278 271 271 275 278 280 288 298 312 324 328 331 332 333 332 331 329 326 324 320 316 311 306 300 294 288 283 278 273 267 262 257 253 250
220 224 229 236 242 242 247 253 256 261 270 276 285 284 280 278 269 262 264 267 267 277 294 312 324 329 331 333 335 335 334 332 329 325 323 319 314 309 305 299 294 287 281 274 269 265 259 254 250
218 223 228 234 237 241 249 256 256 256 268 274 279 276 276 274 265 257 257 257 259 274 292 311 324 329 332 335 337 337 338 335 332 328 326 323 318 311 306 302 297 291 284 277 271 266 261 256 250
216 222 225 228 236 244 253 260 258 255 260 268 272 270 271 269 264 256 251 250 260 275 294 313 322 327 332 336 338 339 338 336 333 331 329 327 322 316 310 306 301 295 288 280 272 265 260 255 250
211 217 218 224 237 242 250 259 255 253 257 263 265 264 265 265 263 253 244 248 264 277 298 313 321 327 332 337 339 339 338 336 335 334 331 330 327 322 316 310 305 299 292 283 274 265 259 254 249
210 213 214 221 231 238 250 250 248 250 255 261 263 263 262 259 254 246 241 253 271 284 301 311 321 328 333 336 337 337 338 338 337 336 334 333 331 326 321 316 310 304 296 286 277 267 259 253 247
198 201 205 214 219 229 241 237 242 247 254 260 256 262 261 250 243 242 245 258 275 288 303 313 323 329 333 337 338 338 340 340 339 338 338 337 334 330 326 323 317 310 301 291 280 270 260 251 244
186 189 198 208 216 224 233 235 241 247 250 259 261 262 255 249 239 242 252 262 277 293 308 318 325 330 334 337 339 340 342 343 342 342 342 340 337 335 332 329 324 317 308 297 286 274 261 248 241
170 178 184 194 202 217 218 230 239 238 246 259 268 264 258 254 253 250 257 265 279 295 308 317 325 331 334 337 339 340 341 343 342 342 342 342 341 339 337 335 330 325 316 303 290 278 262 247 239
158 163 172 181 188 185 190 213 230 236 260 264 266 264 263 259 259 260 265 270 282 294 304 314 325 331 336 338 339 339 341 342 342 342 342 343 343 343 342 342 339 334 328 317 301 285 266 250 240
154 155 160 163 162 164 174 198 220 241 258 263 264 266 267 270 269 269 268 276 284 291 299 309 321 331 336 338 339 340 341 341 342 343 344 345 346 346 346 346 345 341 337 330 317 296 277 255 241
148 149 149 150 153 160 170 189 217 250 280 281 271 275 275 276 273 276 276 277 282 288 294 303 314 325 332 335 337 339 340 341 343 344 345 347 348 349 348 348 348 346 343 339 331 311 286 261 245
145 145 149 154 158 163 184 216 245 268 284 288 287 288 288 284 280 278 284 283 283 288 293 300 307 315 323 329 334 337 340 341 343 346 347 348 350 350 351 352 351 351 349 346 340 330 303 269 251
142 146 150 158 159 183 220 244 269 280 287 297 296 290 290 289 284 282 284 286 287 291 295 299 302 307 314 322 329 334 338 341 343 345 347 348 350 352 353 355 354 353 353 353 350 344 334 288 253
136 138 132 154 202 251 248 269 285 294 303 309 305 295 291 287 286 286 286 286 289 293 295 298 299 302 308 315 322 329 334 339 341 343 345 347 349 350 353 355 356 355 357 357 357 356 350 333 279
122 121 101 348 341 295 269 287 301 302 310 312 310 303 294 291 290 289 287 289 291 291 293 295 296 299 304 309 315 321 328 333 336 338 340 343 346 349 352 355 357 358 357 358 356 355 354 340 295
79 53 359 339 327 315 290 298 308 315 318 317 314 309 299 293 291 290 289 289 290 290 289 290 292 294 298 302 307 313 319 325 329 332 335 339 342 345 348 351 354 357 358 358 356 353 350 342 302
25 9 345 333 333 324 314 311 312 314 312 310 309 307 300 296 294 293 293 293 292 290 289 288 288 290 293 296 300 305 310 315 319 324 329 333 338 341 343 346 350 354 356 355 354 352 350 344 323
Height
5859 5860 5861 5862 5863 5863 5862 5862 5861 5861 5862 5862 5862 5862 5863 5863 5865 5867 5866 5864 5864 5864 5864 5864 5863 5863 5862 5862 5861 5861 5860 5860 5860 5859 5859 5859 5859 5859 5859 5859 5859 5860 5860 5861 5862 5862 5864 5865 5866
5858 5859 5861 5862 5862 5862 5862 5862 5861 5861 5862 5862 5862 5862 5862 5862 5863 5863 5863 5863 5863 5863 5862 5862 5862 5861 5861 5860 5860 5859 5859 5858 5857 5857 5857 5856 5856 5856 5856 5856 5856 5857 5857 5858 5858 5859 5860 5862 5863
5857 5858 5860 5861 5861 5862 5862 5862 5861 5861 5861 5861 5861 5861 5861 5862 5861 5861 5862 5861 5861 5861 5861 5860 5860 5859 5859 5858 5858 5857 5857 5856 5855 5855 5854 5854 5853 5853 5853 5853 5853 5853 5853 5854 5855 5856 5857 5858 5860
5856 5857 5859 5860 5860 5861 5861 5861 5861 5861 5861 5861 5861 5861 5860 5860 5860 5860 5860 5860 5859 5859 5859 5858 5858 5857 5857 5857 5856 5855 5854 5854 5853 5852 5852 5851 5850 5850 5849 5849 5849 5850 5850 5850 5851 5852 5853 5854 5856
5854 5856 5857 5858 5859 5860 5860 5860 5860 5860 5860 5860 5860 5860 5859 5859 5859 5858 5858 5858 5858 5857 5857 5857 5856 5856 5855 5855 5854 5853 5852 5851 5850 5850 5849 5848 5847 5846 5846 5846 5846 5846 5846 5846 5846 5847 5848 5850 5852
5852 5854 5856 5857 5858 5858 5859 5859 5859 5859 5858 5859 5859 5858 5858 5858 5857 5857 5857 5857 5856 5856 5855 5855 5854 5854 5853 5852 5852 5851 5850 5849 5848 5847 5846 5845 5844 5843 5842 5842 5842 5842 5842 5842 5842 5843 5844 5846 5847
5851 5852 5853 5855 5856 5857 5858 5858 5858 5858 5857 5857 5857 5857 5857 5857 5856 5856 5855 5855 5855 5854 5854 5853 5852 5852 5851 5851 5850 5848 5847 5846 5845 5844 5842 5841 5840 5839 5839 5838 5837 5837 5837 5837 5838 5839 5840 5841 5842
5847 5850 5851 5853 5855 5855 5856 5856 5856 5856 5856 5856 5856 5856 5855 5855 5855 5854 5854 5854 5853 5853 5852 5852 5851 5850 5849 5848 5847 5846 5845 5843 5842 5841 5839 5838 5837 5836 5835 5834 5833 5833 5833 5833 5833 5834 5835 5836 5838
5844 5848 5849 5851 5852 5853 5854 5855 5855 5854 5855 5855 5855 5855 5854 5854 5853 5853 5853 5853 5852 5852 5851 5851 5850 5849 5848 5847 5845 5844 5843 5841 5839 5838 5836 5835 5833 5832 5830 5830 5829 5828 5828 5828 5829 5829 5830 5831 5833
5842 5845 5847 5848 5850 5851 5852 5853 5853 5854 5853 5854 5853 5853 5853 5852 5852 5852 5852 5851 5851 5851 5850 5849 5848 5847 5846 5845 5843 5842 5841 5839 5837 5835 5833 5831 5829 5828 5826 5825 5824 5824 5823 5823 5824 5824 5825 5826 5828
5839 5842 5844 5845 5847 5849 5850 5851 5851 5852 5852 5852 5852 5852 5852 5851 5851 5851 5850 5850 5850 5849 5849 5848 5847 5846 5845 5844 5842 5840 5838 5836 5834 5832 5830 5828 5826 5824 5822 5821 5820 5819 5818 5818 5818 5819 5820 5821 5822
5837 5839 5841 5843 5845 5847 5848 5849 5849 5850 5851 5851 5850 5850 5850 5850 5850 5849 5849 5849 5849 5848 5847 5847 5846 5845 5843 5842 5840 5838 5836 5834 5831 5829 5827 5824 5822 5820 5818 5816 5815 5814 5813 5813 5813 5813 5814 5815 5817
5833 5836 5839 5841 5843 5844 5846 5847 5847 5848 5849 5848 5848 5848 5848 5848 5848 5848 5848 5848 5847 5847 5846 5846 5844 5843 5842 5840 5838 5836 5834 5831 5829 5826 5824 5821 5819 5816 5814 5812 5810 5809 5808 5807 5807 5808 5808 5810 5811
5831 5834 5836 5839 5840 5842 5844 5845 5846 5846 5847 5847 5847 5847 5846 5846 5847 5847 5846 5846 5846 5846 5845 5844 5843 5842 5840 5838 5836 5834 5832 5829 5826 5824 5821 5818 5815 5812 5810 5807 5805 5804 5803 5802 5802 5802 5802 5804 5805
5829 5832 5835 5837 5838 5840 5842 5844 5844 5845 5845 5845 5845 5845 5845 5845 5845 5845 5845 5845 5845 5844 5844 5843 5842 5840 5838 5837 5834 5832 5829 5827 5824 5821 5818 5815 5811 5808 5806 5803 5801 5799 5797 5796 5796 5796 5797 5798 5799
5827 5830 5833 5835 5837 5839 5842 5842 5843 5843 5843 5843 5844 5843 5843 5843 5843 5843 5843 5844 5843 5843 5842 5841 5840 5839 5837 5835 5833 5830 5827 5825 5822 5818 5815 5811 5808 5805 5802 5799 5796 5794 5792 5791 5790 5790 5791 5792 5793
5825 5829 5831 5834 5836 5837 5839 5840 5841 5841 5841 5842 5842 5842 5842 5842 5842 5842 5842 5842 5842 5842 5841 5840 5839 5837 5835 5833 5831 5828 5825 5822 5819 5816 5812 5808 5805 5801 5798 5795 5792 5789 5787 5786 5785 5785 5785 5786 5788
5825 5828 5830 5832 5834 5836 5837 5838 5839 5839 5840 5840 5840 5840 5840 5840 5840 5840 5840 5840 5840 5840 5839 5839 5837 5835 5833 5831 5829 5826 5824 5820 5817 5813 5810 5806 5802 5798 5795 5791 5788 5785 5782 5781 5780 5780 5780 5781 5783
5824 5826 5829 5831 5833 5835 5836 5837 5838 5838 5839 5838 5839 5839 5839 5839 5839 5839 5839 5839 5839 5838 5838 5837 5835 5833 5831 5829 5827 5824 5821 5818 5815 5811 5807 5803 5799 5795 5791 5787 5784 5781 5778 5776 5775 5774 5775 5776 5778
5823 5826 5828 5831 5832 5834 5835 5836 5837 5837 5837 5837 5837 5837 5837 5837 5837 5837 5837 5837 5837 5837 5836 5835 5833 5832 5830 5827 5825 5822 5819 5816 5813 5809 5805 5801 5797 5792 5788 5784 5780 5777 5774 5772 5770 5770 5770 5771 5773
5823 5826 5828 5831 5832 5833 5835 5836 5836 5836 5836 5837 5836 5836 5836 5836 5836 5836 5836 5836 5835 5835 5834 5833 5831 5830 5828 5826 5823 5820 5817 5814 5811 5807 5803 5799 5795 5790 5786 5782 5778 5774 5771 5769 5767 5766 5766 5767 5769
5824 5826 5828 5830 5831 5833 5835 5835 5836 5836 5836 5836 5836 5835 5835 5835 5835 5835 5834 5834 5834 5833 5832 5831 5830 5828 5826 5824 5821 5819 5816 5813 5809 5805 5801 5797 5793 5789 5784 5780 5776 5772 5769 5766 5765 5764 5764 5764 5766
5825 5826 5828 5830 5831 5833 5834 5835 5836 5835 5835 5835 5835 5834 5834 5834 5833 5833 5833 5832 5832 5831 5830 5829 5828 5826 5824 5822 5820 5817 5814 5811 5808 5804 5800 5796 5792 5787 5783 5779 5775 5771 5768 5765 5763 5762 5762 5762 5763
5826 5827 5829 5830 5832 5833 5834 5835 5835 5835 5835 5834 5834 5833 5833 5832 5832 5832 5831 5831 5830 5830 5829 5828 5826 5825 5823 5821 5819 5816 5813 5809 5806 5802 5798 5795 5790 5786 5782 5778 5774 5771 5767 5764 5762 5761 5760 5760 5760
5827 5829 5830 5831 5832 5833 5834 5834 5835 5834 5834 5833 5833 5833 5832 5831 5831 5830 5830 5829 5828 5828 5827 5826 5824 5823 5821 5819 5817 5814 5811 5808 5804 5801 5797 5794 5790 5786 5781 5777 5774 5770 5767 5764 5762 5760 5759 5759 5759
5827 5829 5831 5832 5832 5833 5833 5834 5835 5834 5833 5832 5832 5831 5831 5830 5829 5829 5828 5827 5827 5826 5825 5824 5822 5821 5819 5817 5815 5813 5810 5806 5803 5800 5796 5793 5789 5785 5781 5777 5774 5770 5767 5764 5762 5760 5759 5758 5758
5828 5829 5831 5832 5832 5833 5833 5833 5833 5832 5832 5832 5831 5830 5829 5828 5828 5827 5826 5825 5825 5824 5823 5821 5820 5819 5817 5815 5813 5811 5808 5805 5802 5799 5795 5792 5788 5785 5781 5777 5773 5770 5767 5765 5762 5760 5759 5758 5758
5830 5830 5831 5831 5831 5832 5832 5832 5832 5831 5831 5830 5829 5829 5828 5827 5826 5825 5824 5823 5822 5821 5820 5819 5818 5816 5815 5813 5811 5809 5806 5803 5800 5797 5794 5791 5788 5784 5781 5777 5774 5770 5767 5765 5762 5761 5759 5758 5758
5830 5831 5830 5831 5831 5831 5831 5833 5831 5830 5830 5829 5828 5827 5825 5824 5824 5823 5822 5820 5819 5818 5817 5816 5815 5813 5812 5810 5808 5806 5804 5801 5799 5796 5793 5790 5787 5784 5780 5777 5774 5770 5767 5765 5763 5761 5760 5758 5758
5830 5830 5830 5830 5830 5830 5830 5833 5829 5828 5827 5826 5825 5824 5823 5822 5821 5820 5819 5817 5816 5815 5814 5812 5811 5810 5808 5807 5805 5804 5802 5799 5797 5794 5792 5789 5786 5783 5780 5777 5774 5771 5768 5765 5763 5761 5760 5759 5758